| time (UTC) | temp F | wind direction | speed knots | gust knots | rain 1hr in | rain 24hr in | rain mn in | humidity % | barometer mb |
| 20260906174025 | 76 | 63 | 3.5 | 7.8 | 0.00 | 0.00 | 0.00 | 73 | 1019.5 |
| 20260906173522 | 77 | 65 | 1.7 | 7.8 | 0.00 | 0.00 | 0.00 | 73 | 1019.7 |
| 20260906173053 | 77 | 69 | 1.7 | 7.8 | 0.00 | 0.00 | 0.00 | 73 | 1019.8 |
| 20260906172524 | 77 | 63 | 1.7 | 5.2 | 0.00 | 0.00 | 0.00 | 74 | 1019.8 |
| 20260906172023 | 76 | 57 | 1.7 | 7.8 | 0.00 | 0.00 | 0.00 | 74 | 1019.7 |
| 20260906171546 | 76 | 67 | 2.6 | 7.8 | 0.00 | 0.00 | 0.00 | 74 | 1019.7 |
| 20260906171025 | 76 | 76 | 1.7 | 8.7 | 0.00 | 0.00 | 0.00 | 74 | 1019.8 |
| 20260906170524 | 76 | 69 | 1.7 | 8.7 | 0.00 | 0.00 | 0.00 | 75 | 1020.1 |
| 20260906170048 | 76 | 41 | 2.6 | 8.7 | 0.00 | 0.00 | 0.00 | 75 | 1020.0 |
| 20260906165523 | 76 | 53 | 0.9 | 7.8 | 0.00 | 0.00 | 0.00 | 76 | 1020.0 |
| 20260906165023 | 76 | 65 | 3.5 | 8.7 | 0.00 | 0.00 | 0.00 | 75 | 1020.1 |
| 20260906164546 | 76 | 60 | 1.7 | 8.7 | 0.00 | 0.00 | 0.00 | 76 | 1020.0 |
| 20260906164027 | 75 | 60 | 2.6 | 7.8 | 0.00 | 0.00 | 0.00 | 76 | 1020.0 |
| 20260906163524 | 75 | 75 | 2.6 | 7.8 | 0.00 | 0.00 | 0.00 | 75 | 1020.2 |
| 20260906163045 | 75 | 71 | 2.6 | 7.8 | 0.00 | 0.00 | 0.00 | 75 | 1020.3 |
| 20260906162522 | 76 | 56 | 1.7 | 7.8 | 0.00 | 0.00 | 0.00 | 75 | 1020.5 |
| 20260906162024 | 76 | 60 | 1.7 | 8.7 | 0.00 | 0.00 | 0.00 | 76 | 1020.4 |
| 20260906161542 | 75 | 59 | 3.5 | 8.7 | 0.00 | 0.00 | 0.00 | 76 | 1020.4 |
| 20260906161024 | 75 | 61 | 1.7 | 4.3 | 0.00 | 0.00 | 0.00 | 77 | 1020.5 |
| 20260906160523 | 75 | 59 | 0.9 | 6.1 | 0.00 | 0.00 | 0.00 | 78 | 1020.4 |
| 20260906160052 | 74 | 74 | 1.7 | 7.0 | 0.00 | 0.00 | 0.00 | 79 | 1020.4 |
| 20260906155525 | 74 | 51 | 2.6 | 7.0 | 0.00 | 0.00 | 0.00 | 80 | 1020.5 |
| 20260906155022 | 73 | 0 | 0.0 | 7.0 | 0.00 | 0.00 | 0.00 | 80 | 1020.5 |
| 20260906154548 | 73 | 69 | 1.7 | 7.0 | 0.00 | 0.00 | 0.00 | 81 | 1020.5 |
| 20260906154023 | 73 | 0 | 0.0 | 8.7 | 0.00 | 0.00 | 0.00 | 81 | 1020.4 |
| 20260906153522 | 73 | 61 | 2.6 | 8.7 | 0.00 | 0.00 | 0.00 | 81 | 1020.5 |
| 20260906153047 | 73 | 64 | 1.7 | 5.2 | 0.00 | 0.00 | 0.00 | 82 | 1020.6 |
| 20260906152523 | 72 | 82 | 0.9 | 7.8 | 0.00 | 0.00 | 0.00 | 83 | 1020.6 |
| 20260906152024 | 72 | 62 | 1.7 | 7.8 | 0.00 | 0.00 | 0.00 | 82 | 1020.7 |
| 20260906151544 | 72 | 0 | 0.9 | 5.2 | 0.00 | 0.00 | 0.00 | 83 | 1020.7 |
| 20260906151027 | 72 | 72 | 0.0 | 4.3 | 0.00 | 0.00 | 0.00 | 83 | 1020.7 |
| 20260906150523 | 72 | 72 | 1.7 | 6.1 | 0.00 | 0.00 | 0.00 | 83 | 1020.7 |
| 20260906150049 | 72 | 61 | 2.6 | 6.1 | 0.00 | 0.00 | 0.00 | 82 | 1020.5 |
| 20260906145525 | 72 | 63 | 1.7 | 7.8 | 0.00 | 0.00 | 0.00 | 83 | 1020.5 |
| 20260906145030 | 72 | 65 | 1.7 | 7.8 | 0.00 | 0.00 | 0.00 | 82 | 1020.5 |
| 20260906144547 | 72 | 0 | 0.0 | 4.3 | 0.00 | 0.00 | 0.00 | 83 | 1020.6 |
| 20260906144021 | 72 | 0 | 0.9 | 7.8 | 0.00 | 0.00 | 0.00 | 83 | 1020.6 |
| 20260906143523 | 72 | 50 | 1.7 | 7.8 | 0.00 | 0.00 | 0.00 | 83 | 1020.5 |
| 20260906143046 | 72 | 49 | 2.6 | 6.1 | 0.00 | 0.00 | 0.00 | 82 | 1020.5 |
| 20260906142528 | 72 | 54 | 0.9 | 5.2 | 0.00 | 0.00 | 0.00 | 83 | 1020.3 |
| 20260906142026 | 72 | 40 | 1.7 | 7.8 | 0.00 | 0.00 | 0.00 | 84 | 1020.3 |
| 20260906141545 | 72 | 46 | 1.7 | 7.8 | 0.00 | 0.00 | 0.00 | 84 | 1020.4 |
| 20260906141024 | 72 | 56 | 2.6 | 7.0 | 0.00 | 0.00 | 0.00 | 84 | 1020.4 |
| 20260906140523 | 72 | 63 | 1.7 | 7.0 | 0.00 | 0.00 | 0.00 | 84 | 1020.5 |
| 20260906140051 | 72 | 41 | 2.6 | 6.1 | 0.00 | 0.00 | 0.00 | 84 | 1020.4 |
| 20260906135524 | 71 | 45 | 0.9 | 5.2 | 0.00 | 0.00 | 0.00 | 86 | 1020.5 |
| 20260906135022 | 71 | 59 | 1.7 | 6.1 | 0.00 | 0.00 | 0.00 | 85 | 1020.4 |
| 20260906134549 | 71 | 51 | 1.7 | 6.1 | 0.00 | 0.00 | 0.00 | 85 | 1020.3 |
| 20260906134024 | 71 | 57 | 1.7 | 7.8 | 0.00 | 0.00 | 0.00 | 86 | 1020.3 |
| 20260906133522 | 71 | 0 | 0.9 | 7.8 | 0.00 | 0.00 | 0.00 | 86 | 1020.2 |
| 20260906133105 | 71 | 57 | 2.6 | 7.8 | 0.00 | 0.00 | 0.00 | 87 | 1020.2 |
| 20260906132523 | 71 | 61 | 0.9 | 5.2 | 0.00 | 0.00 | 0.00 | 88 | 1020.1 |
| 20260906132024 | 70 | 59 | 1.7 | 4.3 | 0.00 | 0.00 | 0.00 | 88 | 1020.1 |
| 20260906131549 | 70 | 56 | 0.9 | 4.3 | 0.00 | 0.00 | 0.00 | 88 | 1020.2 |
| 20260906131023 | 70 | 46 | 0.9 | 4.3 | 0.00 | 0.00 | 0.00 | 89 | 1020.2 |
| 20260906130523 | 69 | 53 | 0.0 | 7.0 | 0.00 | 0.00 | 0.00 | 90 | 1020.1 |
| 20260906130049 | 69 | 0 | 1.7 | 7.0 | 0.00 | 0.00 | 0.00 | 90 | 1020.1 |
| 20260906125526 | 69 | 59 | 1.7 | 5.2 | 0.00 | 0.00 | 0.00 | 90 | 1020.0 |
| 20260906125024 | 69 | 50 | 0.0 | 3.5 | 0.00 | 0.00 | 0.00 | 90 | 1020.0 |
| 20260906124551 | 69 | 51 | 0.9 | 4.3 | 0.00 | 0.00 | 0.00 | 90 | 1020.1 |
| 20260906124023 | 69 | 62 | 1.7 | 4.3 | 0.00 | 0.00 | 0.00 | 90 | 1020.1 |
| 20260906123522 | 68 | 61 | 0.9 | 4.3 | 0.00 | 0.00 | 0.00 | 90 | 1019.9 |
| 20260906123048 | 68 | 59 | 0.9 | 3.5 | 0.00 | 0.00 | 0.00 | 91 | 1019.9 |
| 20260906122523 | 68 | 60 | 0.0 | 4.3 | 0.00 | 0.00 | 0.00 | 91 | 1020.0 |
| 20260906122026 | 68 | 48 | 0.0 | 4.3 | 0.00 | 0.00 | 0.00 | 91 | 1020.0 |
| 20260906121545 | 68 | 54 | 0.9 | 4.3 | 0.00 | 0.00 | 0.00 | 91 | 1020.0 |
| 20260906121024 | 68 | 0 | 0.0 | 2.6 | 0.00 | 0.00 | 0.00 | 91 | 1020.0 |
| 20260906120528 | 68 | 0 | 0.0 | 3.5 | 0.00 | 0.00 | 0.00 | 91 | 1019.9 |
| 20260906120049 | 68 | 57 | 0.0 | 3.5 | 0.00 | 0.00 | 0.00 | 91 | 1019.8 |
| 20260906115523 | 68 | 0 | 0.0 | 2.6 | 0.00 | 0.00 | 0.00 | 90 | 1019.8 |
| 20260906115024 | 68 | 55 | 0.0 | 2.6 | 0.00 | 0.00 | 0.00 | 90 | 1019.7 |
| 20260906114547 | 68 | 0 | 0.0 | 1.7 | 0.00 | 0.00 | 0.00 | 90 | 1019.7 |
| 20260906114022 | 68 | 57 | 0.0 | 1.7 | 0.00 | 0.00 | 0.00 | 90 | 1019.7 |
| 20260906113524 | 69 | 0 | 0.0 | 0.0 | 0.00 | 0.00 | 0.00 | 90 | 1019.6 |
| 20260906113046 | 69 | 0 | 0.0 | 0.0 | 0.00 | 0.00 | 0.00 | 90 | 1019.5 |
| 20260906112525 | 69 | 0 | 0.0 | 0.9 | 0.00 | 0.00 | 0.00 | 89 | 1019.5 |
| 20260906112023 | 69 | 0 | 0.0 | 0.9 | 0.00 | 0.00 | 0.00 | 89 | 1019.4 |
| 20260906111553 | 69 | 0 | 0.0 | 0.9 | 0.00 | 0.00 | 0.00 | 89 | 1019.4 |
| 20260906111023 | 69 | 0 | 0.0 | 1.7 | 0.00 | 0.00 | 0.00 | 90 | 1019.3 |
| 20260906110524 | 69 | 0 | 0.0 | 1.7 | 0.00 | 0.00 | 0.00 | 89 | 1019.3 |
| 20260906110054 | 69 | 0 | 0.0 | 1.7 | 0.00 | 0.00 | 0.00 | 89 | 1019.2 |
| 20260906105526 | 70 | 0 | 0.0 | 1.7 | 0.00 | 0.00 | 0.00 | 89 | 1019.3 |
| 20260906105021 | 70 | 0 | 0.0 | 1.7 | 0.00 | 0.00 | 0.00 | 89 | 1019.2 |
| 20260906104549 | 70 | 0 | 0.0 | 1.7 | 0.00 | 0.00 | 0.00 | 89 | 1019.2 |
| 20260906104024 | 70 | 0 | 0.0 | 0.9 | 0.00 | 0.00 | 0.00 | 89 | 1019.4 |
| 20260906103524 | 70 | 0 | 0.0 | 1.7 | 0.00 | 0.00 | 0.00 | 89 | 1019.2 |
| 20260906103046 | 70 | 0 | 0.0 | 2.6 | 0.00 | 0.00 | 0.00 | 88 | 1019.2 |
| 20260906102524 | 70 | 0 | 0.0 | 2.6 | 0.00 | 0.00 | 0.00 | 89 | 1019.2 |
| 20260906102023 | 70 | 61 | 0.0 | 2.6 | 0.00 | 0.00 | 0.00 | 88 | 1019.4 |
| 20260906101548 | 70 | 0 | 0.0 | 2.6 | 0.00 | 0.00 | 0.00 | 88 | 1019.2 |
| 20260906101024 | 70 | 53 | 0.0 | 2.6 | 0.00 | 0.00 | 0.00 | 88 | 1019.1 |
| 20260906100528 | 70 | 0 | 0.9 | 2.6 | 0.00 | 0.00 | 0.00 | 88 | 1019.1 |
| 20260906100048 | 70 | 63 | 0.0 | 2.6 | 0.00 | 0.00 | 0.00 | 88 | 1019.1 |
| 20260906095524 | 70 | 0 | 0.0 | 0.9 | 0.00 | 0.00 | 0.00 | 88 | 1019.1 |
| 20260906095027 | 70 | 0 | 0.0 | 2.6 | 0.00 | 0.00 | 0.00 | 88 | 1018.8 |
| 20260906094542 | 70 | 0 | 0.0 | 2.6 | 0.00 | 0.00 | 0.00 | 88 | 1018.4 |
| 20260906094024 | 70 | 51 | 0.0 | 1.7 | 0.00 | 0.00 | 0.00 | 88 | 1018.3 |
| 20260906093524 | 70 | 0 | 0.0 | 2.6 | 0.00 | 0.00 | 0.00 | 88 | 1018.3 |
| 20260906093058 | 70 | 46 | 0.0 | 2.6 | 0.00 | 0.00 | 0.00 | 87 | 1018.4 |
| 20260906092525 | 70 | 0 | 0.0 | 1.7 | 0.00 | 0.00 | 0.00 | 87 | 1018.3 |
| 20260906092023 | 70 | 0 | 0.0 | 1.7 | 0.00 | 0.00 | 0.00 | 87 | 1018.2 |
| 20260906091544 | 70 | 55 | 0.0 | 2.6 | 0.00 | 0.00 | 0.00 | 87 | 1018.2 |
| 20260906091025 | 70 | 0 | 0.0 | 2.6 | 0.00 | 0.00 | 0.00 | 87 | 1018.2 |
| 20260906090525 | 70 | 0 | 0.0 | 1.7 | 0.00 | 0.00 | 0.00 | 87 | 1018.3 |
| 20260906090109 | 70 | 0 | 0.0 | 1.7 | 0.00 | 0.00 | 0.00 | 87 | 1018.3 |
| 20260906085524 | 70 | 0 | 0.0 | 2.6 | 0.00 | 0.00 | 0.00 | 87 | 1018.3 |
| 20260906085025 | 70 | 58 | 0.0 | 2.6 | 0.00 | 0.00 | 0.00 | 86 | 1018.3 |
| 20260906084554 | 70 | 48 | 0.9 | 2.6 | 0.00 | 0.00 | 0.00 | 86 | 1018.2 |
| 20260906084022 | 70 | 53 | 0.0 | 3.5 | 0.00 | 0.00 | 0.00 | 86 | 1018.1 |
| 20260906083526 | 70 | 57 | 0.9 | 3.5 | 0.00 | 0.00 | 0.00 | 86 | 1018.2 |
| 20260906083047 | 70 | 0 | 0.9 | 3.5 | 0.00 | 0.00 | 0.00 | 86 | 1018.1 |
| 20260906082523 | 71 | 61 | 0.9 | 3.5 | 0.00 | 0.00 | 0.00 | 86 | 1018.2 |
| 20260906082025 | 71 | 61 | 0.9 | 2.6 | 0.00 | 0.00 | 0.00 | 86 | 1018.2 |
| 20260906081547 | 71 | 57 | 0.9 | 2.6 | 0.00 | 0.00 | 0.00 | 86 | 1018.3 |
| 20260906081023 | 71 | 57 | 0.0 | 3.5 | 0.00 | 0.00 | 0.00 | 86 | 1018.4 |
| 20260906080526 | 71 | 54 | 0.0 | 3.5 | 0.00 | 0.00 | 0.00 | 86 | 1018.3 |
| 20260906080045 | 71 | 0 | 0.0 | 3.5 | 0.00 | 0.00 | 0.00 | 86 | 1018.2 |
| 20260906075525 | 71 | 0 | 0.0 | 1.7 | 0.00 | 0.00 | 0.00 | 86 | 1018.4 |
| 20260906075024 | 71 | 0 | 0.0 | 1.7 | 0.00 | 0.00 | 0.00 | 85 | 1018.3 |
| 20260906074550 | 71 | 59 | 0.0 | 1.7 | 0.00 | 0.00 | 0.00 | 85 | 1018.4 |
| 20260906074023 | 71 | 55 | 0.0 | 1.7 | 0.00 | 0.00 | 0.00 | 85 | 1018.4 |
| 20260906073524 | 71 | 0 | 0.0 | 1.7 | 0.00 | 0.00 | 0.00 | 85 | 1018.5 |
| 20260906073047 | 72 | 0 | 0.0 | 1.7 | 0.00 | 0.00 | 0.00 | 85 | 1018.4 |
| 20260906072524 | 72 | 0 | 0.0 | 1.7 | 0.00 | 0.00 | 0.00 | 85 | 1018.4 |
| 20260906072022 | 72 | 0 | 0.0 | 1.7 | 0.00 | 0.00 | 0.00 | 85 | 1018.4 |
| 20260906071548 | 72 | 59 | 0.0 | 1.7 | 0.00 | 0.00 | 0.00 | 85 | 1018.6 |
| 20260906071024 | 72 | 0 | 0.0 | 1.7 | 0.00 | 0.00 | 0.00 | 84 | 1018.6 |
| 20260906070525 | 72 | 0 | 0.0 | 1.7 | 0.00 | 0.00 | 0.00 | 84 | 1018.7 |
| 20260906070047 | 72 | 0 | 0.0 | 1.7 | 0.00 | 0.00 | 0.00 | 84 | 1018.8 |
| 20260906065527 | 72 | 0 | 0.0 | 1.7 | 0.00 | 0.00 | 0.00 | 84 | 1018.7 |
| 20260906065026 | 72 | 0 | 0.0 | 1.7 | 0.00 | 0.00 | 0.00 | 84 | 1018.7 |
| 20260906064544 | 72 | 59 | 0.0 | 2.6 | 0.00 | 0.00 | 0.00 | 84 | 1018.7 |
| 20260906064022 | 72 | 0 | 0.0 | 2.6 | 0.00 | 0.00 | 0.00 | 84 | 1018.7 |
| 20260906063526 | 72 | 0 | 0.0 | 1.7 | 0.00 | 0.00 | 0.00 | 84 | 1018.8 |
| 20260906063053 | 72 | 57 | 0.0 | 2.6 | 0.00 | 0.00 | 0.00 | 84 | 1018.7 |
| 20260906062524 | 73 | 0 | 0.0 | 2.6 | 0.00 | 0.00 | 0.00 | 84 | 1018.8 |
| 20260906062024 | 72 | 0 | 0.0 | 2.6 | 0.00 | 0.00 | 0.00 | 84 | 1018.6 |
| 20260906061556 | 72 | 55 | 0.0 | 2.6 | 0.00 | 0.00 | 0.00 | 83 | 1018.7 |
| 20260906061024 | 72 | 0 | 0.0 | 1.7 | 0.00 | 0.00 | 0.00 | 83 | 1018.7 |
| 20260906060523 | 72 | 0 | 0.0 | 1.7 | 0.00 | 0.00 | 0.00 | 83 | 1018.9 |
| 20260906060047 | 72 | 0 | 0.0 | 1.7 | 0.00 | 0.00 | 0.00 | 83 | 1018.8 |
| 20260906055523 | 73 | 0 | 0.0 | 1.7 | 0.00 | 0.00 | 0.00 | 83 | 1018.8 |
| 20260906055023 | 73 | 58 | 0.0 | 0.0 | 0.00 | 0.00 | 0.00 | 84 | 1018.8 |
| 20260906054545 | 73 | 0 | 0.0 | 0.0 | 0.00 | 0.00 | 0.00 | 84 | 1018.8 |
| 20260906054022 | 73 | 0 | 0.0 | 0.0 | 0.00 | 0.00 | 0.00 | 84 | 1018.8 |
| 20260906053525 | 73 | 0 | 0.0 | 0.9 | 0.00 | 0.00 | 0.00 | 84 | 1018.7 |
| 20260906053102 | 73 | 0 | 0.0 | 0.9 | 0.00 | 0.00 | 0.00 | 84 | 1018.7 |
| 20260906052547 | 73 | 0 | 0.0 | 0.9 | 0.00 | 0.00 | 0.00 | 84 | 1018.7 |
| 20260906052024 | 73 | 0 | 0.0 | 1.7 | 0.00 | 0.00 | 0.00 | 84 | 1018.7 |
| 20260906051546 | 73 | 0 | 0.0 | 1.7 | 0.00 | 0.00 | 0.00 | 84 | 1018.7 |
| 20260906051023 | 73 | 0 | 0.0 | 1.7 | 0.00 | 0.00 | 0.00 | 84 | 1018.7 |
| 20260906050523 | 73 | 0 | 0.0 | 1.7 | 0.00 | 0.00 | 0.00 | 84 | 1018.7 |
| 20260906050044 | 72 | 0 | 0.0 | 0.9 | 0.00 | 0.00 | 0.00 | 84 | 1018.7 |
| 20260906045525 | 72 | 0 | 0.0 | 0.9 | 0.00 | 0.00 | 0.00 | 84 | 1018.9 |
| 20260906045025 | 72 | 0 | 0.0 | 0.0 | 0.00 | 0.00 | 0.00 | 83 | 1018.9 |
| 20260906044540 | 72 | 0 | 0.0 | 0.0 | 0.00 | 0.00 | 0.00 | 83 | 1018.9 |
| 20260906044025 | 72 | 0 | 0.0 | 0.0 | 0.00 | 0.00 | 0.00 | 84 | 1019.1 |
| 20260906043523 | 72 | 0 | 0.0 | 0.0 | 0.00 | 0.00 | 0.00 | 84 | 1019.0 |
| 20260906043046 | 72 | 0 | 0.0 | 0.0 | 0.00 | 0.00 | 0.00 | 84 | 1019.1 |
| 20260906042522 | 72 | 0 | 0.0 | 0.0 | 0.00 | 0.00 | 0.00 | 83 | 1018.9 |
| 20260906042024 | 72 | 0 | 0.0 | 0.0 | 0.00 | 0.00 | 0.00 | 83 | 1018.9 |
| 20260906041554 | 72 | 0 | 0.0 | 0.0 | 0.00 | 0.00 | 0.00 | 83 | 1018.9 |
| 20260906041025 | 72 | 0 | 0.0 | 0.0 | 0.00 | 0.00 | 0.00 | 82 | 1019.0 |
| 20260906040524 | 72 | 0 | 0.0 | 0.0 | 0.00 | 0.00 | 0.00 | 82 | 1018.9 |
| 20260906040047 | 72 | 0 | 0.0 | 0.0 | 0.00 | 0.00 | 0.00 | 81 | 1019.1 |
| 20260906035527 | 73 | 0 | 0.0 | 0.0 | 0.00 | 0.00 | 0.00 | 81 | 1019.1 |
| 20260906035021 | 73 | 0 | 0.0 | 0.0 | 0.00 | 0.00 | 0.00 | 81 | 1019.1 |
| 20260906034544 | 73 | 0 | 0.0 | 0.0 | 0.00 | 0.00 | 0.00 | 80 | 1019.2 |
| 20260906034025 | 73 | 0 | 0.0 | 0.0 | 0.00 | 0.00 | 0.00 | 80 | 1019.2 |
| 20260906033522 | 73 | 0 | 0.0 | 0.0 | 0.00 | 0.00 | 0.00 | 79 | 1019.1 |
| 20260906033047 | 74 | 0 | 0.0 | 0.0 | 0.00 | 0.00 | 0.00 | 79 | 1019.1 |
| 20260906032522 | 74 | 0 | 0.0 | 0.0 | 0.00 | 0.00 | 0.00 | 78 | 1019.2 |
| 20260906032024 | 74 | 0 | 0.0 | 0.0 | 0.00 | 0.00 | 0.00 | 78 | 1019.2 |
| 20260906031542 | 74 | 0 | 0.0 | 0.0 | 0.00 | 0.00 | 0.00 | 77 | 1019.3 |
| 20260906031024 | 75 | 0 | 0.0 | 0.0 | 0.00 | 0.00 | 0.00 | 77 | 1019.2 |
| 20260906030523 | 75 | 0 | 0.0 | 0.0 | 0.00 | 0.00 | 0.00 | 77 | 1019.2 |
| 20260906030050 | 75 | 0 | 0.0 | 0.0 | 0.00 | 0.00 | 0.00 | 76 | 1019.2 |
| 20260906025524 | 75 | 0 | 0.0 | 0.0 | 0.00 | 0.00 | 0.00 | 76 | 1019.2 |
| 20260906025023 | 76 | 0 | 0.0 | 0.0 | 0.00 | 0.00 | 0.00 | 76 | 1019.2 |
| 20260906024607 | 76 | 0 | 0.0 | 0.9 | 0.00 | 0.00 | 0.00 | 75 | 1019.3 |
| 20260906024023 | 76 | 0 | 0.0 | 0.9 | 0.00 | 0.00 | 0.00 | 75 | 1019.2 |
| 20260906023523 | 76 | 0 | 0.0 | 1.7 | 0.00 | 0.00 | 0.00 | 74 | 1019.1 |
| 20260906023054 | 77 | 0 | 0.0 | 1.7 | 0.00 | 0.00 | 0.00 | 74 | 1018.9 |
| 20260906022522 | 77 | 0 | 0.0 | 1.7 | 0.00 | 0.00 | 0.00 | 73 | 1018.8 |
| 20260906022024 | 77 | 0 | 0.0 | 2.6 | 0.00 | 0.00 | 0.00 | 73 | 1018.7 |
| 20260906021546 | 77 | 0 | 0.0 | 2.6 | 0.00 | 0.00 | 0.00 | 73 | 1018.5 |
| 20260906021024 | 77 | 0 | 0.9 | 2.6 | 0.00 | 0.00 | 0.00 | 73 | 1018.5 |
| 20260906020523 | 77 | 0 | 0.9 | 2.6 | 0.00 | 0.00 | 0.00 | 73 | 1018.3 |
| 20260906020042 | 77 | 0 | 0.9 | 2.6 | 0.00 | 0.00 | 0.00 | 73 | 1018.1 |
| 20260906015522 | 77 | 65 | 0.0 | 4.3 | 0.00 | 0.00 | 0.00 | 73 | 1018.0 |
| 20260906015024 | 77 | 0 | 0.9 | 8.7 | 0.00 | 0.00 | 0.00 | 73 | 1017.7 |
| 20260906014552 | 77 | 59 | 0.9 | 8.7 | 0.00 | 0.00 | 0.00 | 73 | 1017.5 |
| 20260906014024 | 78 | 51 | 2.6 | 8.7 | 0.00 | 0.00 | 0.00 | 72 | 1017.4 |
| 20260906013529 | 78 | 0 | 0.9 | 5.2 | 0.00 | 0.00 | 0.00 | 72 | 1017.3 |
| 20260906013047 | 78 | 53 | 1.7 | 5.2 | 0.00 | 0.00 | 0.00 | 72 | 1017.2 |
| 20260906012523 | 78 | 0 | 0.9 | 2.6 | 0.00 | 0.00 | 0.00 | 71 | 1017.2 |
| 20260906012023 | 78 | 53 | 0.0 | 2.6 | 0.00 | 0.00 | 0.00 | 70 | 1017.0 |
| 20260906011556 | 78 | 0 | 0.9 | 3.5 | 0.00 | 0.00 | 0.00 | 70 | 1016.9 |
| 20260906011024 | 79 | 0 | 0.0 | 3.5 | 0.00 | 0.00 | 0.00 | 69 | 1016.9 |
| 20260906010524 | 79 | 57 | 0.9 | 3.5 | 0.00 | 0.00 | 0.00 | 69 | 1016.9 |
| 20260906010101 | 79 | 0 | 0.9 | 3.5 | 0.00 | 0.00 | 0.00 | 69 | 1016.7 |
| 20260906005523 | 79 | 55 | 0.0 | 3.5 | 0.00 | 0.00 | 0.00 | 69 | 1016.5 |
| 20260906005022 | 79 | 58 | 0.9 | 4.3 | 0.00 | 0.00 | 0.00 | 68 | 1016.5 |
| 20260906004548 | 79 | 0 | 0.0 | 4.3 | 0.00 | 0.00 | 0.00 | 68 | 1016.4 |
| 20260906004026 | 80 | 59 | 0.9 | 4.3 | 0.00 | 0.00 | 0.00 | 68 | 1016.3 |
| 20260906003525 | 80 | 43 | 0.9 | 2.6 | 0.00 | 0.00 | 0.00 | 67 | 1016.2 |
| 20260906003045 | 80 | 57 | 0.0 | 2.6 | 0.00 | 0.00 | 0.00 | 67 | 1016.1 |
| 20260906002523 | 80 | 59 | 0.0 | 5.2 | 0.00 | 0.00 | 0.00 | 67 | 1016.1 |
| 20260906002023 | 80 | 0 | 0.9 | 5.2 | 0.00 | 0.00 | 0.00 | 66 | 1016.0 |
| 20260906001559 | 81 | 49 | 1.7 | 5.2 | 0.00 | 0.00 | 0.00 | 66 | 1016.1 |
| 20260906001027 | 81 | 40 | 0.9 | 3.5 | 0.00 | 0.00 | 0.00 | 66 | 1016.2 |
| 20260906000524 | 81 | 54 | 0.9 | 4.3 | 0.00 | 0.00 | 0.00 | 65 | 1016.3 |
| 20260906000050 | 81 | 49 | 0.9 | 5.2 | 0.00 | 0.00 | 0.00 | 65 | 1016.4 |
| 20260905235522 | 81 | 44 | 0.9 | 6.1 | 0.00 | 0.00 | 0.00 | 65 | 1016.4 |
| 20260905235025 | 82 | 28 | 0.9 | 6.1 | 0.00 | 0.00 | 0.00 | 65 | 1016.3 |
| 20260905234548 | 82 | 0 | 0.9 | 5.2 | 0.00 | 0.00 | 0.00 | 65 | 1016.2 |
| 20260905234025 | 82 | 0 | 0.0 | 3.5 | 0.00 | 0.00 | 0.00 | 64 | 1016.3 |
| 20260905233524 | 82 | 0 | 0.9 | 2.6 | 0.00 | 0.00 | 0.00 | 63 | 1016.3 |
| 20260905233045 | 82 | 69 | 0.0 | 4.3 | 0.00 | 0.00 | 0.00 | 63 | 1016.2 |
| 20260905232527 | 82 | 48 | 1.7 | 5.2 | 0.00 | 0.00 | 0.00 | 63 | 1016.0 |
| 20260905232025 | 82 | 34 | 0.9 | 6.1 | 0.00 | 0.00 | 0.00 | 62 | 1016.0 |
| 20260905231545 | 82 | 63 | 1.7 | 7.8 | 0.00 | 0.00 | 0.00 | 62 | 1015.9 |
| 20260905231025 | 82 | 39 | 0.9 | 7.8 | 0.00 | 0.00 | 0.00 | 62 | 1015.9 |
| 20260905230523 | 82 | 70 | 2.6 | 6.1 | 0.00 | 0.00 | 0.00 | 62 | 1015.8 |
| 20260905230052 | 82 | 0 | 1.7 | 7.0 | 0.00 | 0.00 | 0.00 | 63 | 1015.9 |
| 20260905225522 | 82 | 0 | 1.7 | 7.0 | 0.00 | 0.00 | 0.00 | 63 | 1016.0 |
| 20260905225022 | 82 | 41 | 0.9 | 6.1 | 0.00 | 0.00 | 0.00 | 64 | 1016.0 |
| 20260905224550 | 83 | 63 | 1.7 | 6.1 | 0.00 | 0.00 | 0.00 | 64 | 1016.1 |
| 20260905224024 | 83 | 55 | 0.9 | 5.2 | 0.00 | 0.00 | 0.00 | 63 | 1016.0 |
| 20260905223523 | 83 | 22 | 0.9 | 5.2 | 0.00 | 0.00 | 0.00 | 64 | 1016.0 |
| 20260905223043 | 83 | 26 | 0.9 | 5.2 | 0.00 | 0.00 | 0.00 | 64 | 1016.1 |
| 20260905222523 | 83 | 36 | 0.9 | 4.3 | 0.00 | 0.00 | 0.00 | 64 | 1016.1 |
| 20260905222025 | 83 | 38 | 1.7 | 7.8 | 0.00 | 0.00 | 0.00 | 64 | 1016.2 |
| 20260905221553 | 83 | 64 | 0.9 | 7.8 | 0.00 | 0.00 | 0.00 | 64 | 1016.2 |
| 20260905221024 | 83 | 30 | 2.6 | 7.0 | 0.00 | 0.00 | 0.00 | 64 | 1016.2 |
| 20260905220522 | 83 | 48 | 0.9 | 7.8 | 0.00 | 0.00 | 0.00 | 64 | 1016.1 |
| 20260905220048 | 83 | 107 | 1.7 | 7.8 | 0.00 | 0.00 | 0.00 | 65 | 1016.1 |
| 20260905215523 | 83 | 20 | 0.9 | 5.2 | 0.00 | 0.00 | 0.00 | 65 | 1016.1 |
| 20260905215022 | 83 | 47 | 1.7 | 6.1 | 0.00 | 0.00 | 0.00 | 65 | 1016.1 |
| 20260905214541 | 83 | 61 | 1.7 | 8.7 | 0.00 | 0.00 | 0.00 | 65 | 1016.1 |
| 20260905214025 | 83 | 59 | 0.9 | 8.7 | 0.00 | 0.00 | 0.00 | 65 | 1016.1 |
| 20260905213523 | 83 | 67 | 2.6 | 8.7 | 0.00 | 0.00 | 0.00 | 65 | 1016.0 |
| 20260905213052 | 83 | 26 | 1.7 | 7.8 | 0.00 | 0.00 | 0.00 | 65 | 1016.0 |
| 20260905212525 | 82 | 34 | 2.6 | 9.6 | 0.00 | 0.00 | 0.00 | 65 | 1016.0 |
| 20260905212022 | 82 | 55 | 0.9 | 9.6 | 0.00 | 0.00 | 0.00 | 65 | 1016.1 |
| 20260905211548 | 82 | 11 | 1.7 | 7.0 | 0.00 | 0.00 | 0.00 | 65 | 1016.3 |
| 20260905211023 | 82 | 38 | 1.7 | 5.2 | 0.00 | 0.00 | 0.00 | 65 | 1016.4 |
| 20260905210523 | 82 | 45 | 0.9 | 7.8 | 0.00 | 0.00 | 0.00 | 66 | 1016.6 |
| 20260905210045 | 82 | 61 | 1.7 | 7.8 | 0.00 | 0.00 | 0.00 | 67 | 1016.8 |
| 20260905205525 | 82 | 47 | 1.7 | 7.8 | 0.00 | 0.00 | 0.00 | 67 | 1017.0 |
| 20260905205023 | 82 | 19 | 1.7 | 6.1 | 0.00 | 0.00 | 0.00 | 67 | 1017.0 |
| 20260905204540 | 82 | 21 | 1.7 | 6.1 | 0.00 | 0.00 | 0.00 | 67 | 1017.1 |
| 20260905204026 | 82 | 45 | 0.9 | 6.1 | 0.00 | 0.00 | 0.00 | 67 | 1017.2 |
| 20260905203524 | 81 | 41 | 0.9 | 6.1 | 0.00 | 0.00 | 0.00 | 68 | 1017.2 |
| 20260905203058 | 81 | 42 | 0.9 | 7.0 | 0.00 | 0.00 | 0.00 | 68 | 1017.3 |
| 20260905202526 | 81 | 53 | 1.7 | 7.0 | 0.00 | 0.00 | 0.00 | 69 | 1017.4 |
| 20260905202024 | 81 | 19 | 0.9 | 7.0 | 0.00 | 0.00 | 0.00 | 70 | 1017.4 |
| 20260905201557 | 80 | 35 | 1.7 | 7.0 | 0.00 | 0.00 | 0.00 | 70 | 1017.5 |
| 20260905201024 | 80 | 114 | 0.0 | 7.8 | 0.00 | 0.00 | 0.00 | 71 | 1017.6 |
| 20260905200524 | 80 | 24 | 0.0 | 7.8 | 0.00 | 0.00 | 0.00 | 71 | 1017.8 |
| 20260905200044 | 80 | 22 | 2.6 | 7.8 | 0.00 | 0.00 | 0.00 | 70 | 1017.9 |
| 20260905195531 | 80 | 62 | 1.7 | 3.5 | 0.00 | 0.00 | 0.00 | 70 | 1018.0 |
| 20260905195026 | 79 | 0 | 0.9 | 5.2 | 0.00 | 0.00 | 0.00 | 71 | 1018.0 |
| 20260905194541 | 79 | 0 | 0.9 | 6.1 | 0.00 | 0.00 | 0.00 | 70 | 1018.2 |
| 20260905194024 | 79 | 60 | 0.9 | 6.1 | 0.00 | 0.00 | 0.00 | 71 | 1018.1 |
| 20260905193523 | 79 | 56 | 0.9 | 5.2 | 0.00 | 0.00 | 0.00 | 71 | 1018.1 |
| 20260905193047 | 79 | 55 | 0.9 | 3.5 | 0.00 | 0.00 | 0.00 | 72 | 1018.0 |
| 20260905192524 | 79 | 61 | 0.9 | 3.5 | 0.00 | 0.00 | 0.00 | 72 | 1018.1 |
| 20260905192025 | 79 | 0 | 0.9 | 3.5 | 0.00 | 0.00 | 0.00 | 72 | 1018.1 |
| 20260905191546 | 79 | 41 | 0.0 | 3.5 | 0.00 | 0.00 | 0.00 | 73 | 1018.2 |
| 20260905191024 | 78 | 38 | 0.9 | 3.5 | 0.00 | 0.00 | 0.00 | 73 | 1018.2 |
| 20260905190525 | 78 | 57 | 0.0 | 3.5 | 0.00 | 0.00 | 0.00 | 74 | 1018.2 |
| 20260905190042 | 78 | 0 | 0.0 | 3.5 | 0.00 | 0.00 | 0.00 | 74 | 1018.2 |
| 20260905185524 | 78 | 41 | 0.0 | 3.5 | 0.00 | 0.00 | 0.00 | 74 | 1018.2 |
| 20260905185022 | 78 | 69 | 0.0 | 2.6 | 0.00 | 0.00 | 0.00 | 75 | 1018.2 |
| 20260905184547 | 78 | 0 | 0.0 | 6.1 | 0.00 | 0.00 | 0.00 | 75 | 1018.2 |
| 20260905184023 | 78 | 59 | 1.7 | 6.1 | 0.00 | 0.00 | 0.00 | 75 | 1018.1 |
| 20260905183523 | 78 | 53 | 0.0 | 4.3 | 0.00 | 0.00 | 0.00 | 76 | 1018.1 |
| 20260905183106 | 77 | 36 | 0.9 | 4.3 | 0.00 | 0.00 | 0.00 | 76 | 1018.1 |
| 20260905182524 | 77 | 29 | 0.9 | 3.5 | 0.00 | 0.00 | 0.00 | 76 | 1018.2 |
| 20260905182026 | 77 | 24 | 0.0 | 3.5 | 0.00 | 0.00 | 0.00 | 76 | 1018.3 |
| 20260905181547 | 77 | 0 | 0.0 | 3.5 | 0.00 | 0.00 | 0.00 | 77 | 1018.4 |
| 20260905181022 | 77 | 0 | 0.9 | 3.5 | 0.00 | 0.00 | 0.00 | 78 | 1018.4 |
| 20260905180523 | 77 | 42 | 0.9 | 4.3 | 0.00 | 0.00 | 0.00 | 78 | 1018.5 |
| 20260905180049 | 76 | 0 | 0.0 | 4.3 | 0.00 | 0.00 | 0.00 | 79 | 1018.7 |
| 20260905175526 | 76 | 33 | 0.9 | 4.3 | 0.00 | 0.00 | 0.00 | 79 | 1018.6 |
| 20260905175024 | 76 | 0 | 0.0 | 3.5 | 0.00 | 0.00 | 0.00 | 80 | 1018.7 |
| 20260905174549 | 76 | 25 | 0.9 | 3.5 | 0.00 | 0.00 | 0.00 | 80 | 1018.7 |